User: anonymous   Login
Location: Bush Observatory
(40.2653°N, 94.3194°W)
Time: 00:59:38
(UTC-06:00)
Language:

Cosmos 1933 Rocket - Orbit

View from above orbital plane
View from above orbital plane
View from above satellite
View from above satellite

Ground track
Ground track

The orbit data is extracted from the following two-line orbital elements,

1 18959U 88020B   15061.24304002  .00000556  00000-0  65330-4 0  9995
2 18959 082.5409 333.6866 0017682 025.1222 089.6033 14.83052080456370
Epoch (UTC): 02 March 2015 05:49:58
Eccentricity: 0.0017682
inclination: 82.5409°
perigee height: 607 km
apogee height: 632 km
right ascension of ascending node: 333.6866°
argument of perigee: 25.1222°
revolutions per day: 14.83052080
mean anomaly at epoch: 89.6033°
orbit number at epoch: 45637

The dashed part of the orbit path shows where the satellite is in the earth's shadow,  

DLR